Weather observations for the past three days for
Albert Whitted Airport
| Date | Time (edt) | Wind (mph) | Vis. (mi.) | Weather | Sky Cond. | Temperature (ºF) | Relative Humidity | Wind Chill (°F) | Heat Index (°F) | Pressure | Precipitation (in) | ||||||
|---|---|---|---|---|---|---|---|---|---|---|---|---|---|---|---|---|---|
| Air | Dwpt | 6 hour | altimeter (in) | sea level (mb) | 1 hr | 3 hr | 6 hr | ||||||||||
| Max. | Min. | ||||||||||||||||
| 09 | 12:53 | S 14 G 21 | 10.00 | Fair | CLR | 90 | 66.9 | 47% | 93 | 29.9 | 1012.6 | ||||||
| 09 | 11:53 | S 9 | 10.00 | Fair | CLR | 86 | 70 | 59% | 91 | 29.92 | 1013.1 | ||||||
| 09 | 10:53 | SE 5 | 10.00 | Fair | CLR | 82.9 | 72 | 70% | 88 | 29.93 | 1013.4 | ||||||
| 09 | 09:53 | NE 3 | 10.00 | Partly Cloudy | SCT095 | 84 | 72 | 67% | 90 | 29.94 | 1013.8 | ||||||
| 09 | 08:53 | Calm | 10.00 | Mostly Cloudy | BKN080 BKN095 | 81 | 72 | 74% | 85 | 29.92 | 1013.2 | ||||||
| 09 | 07:53 | S 5 | 10.00 | Overcast | OVC090 | 79 | 72 | 80.1 | 78.1 | 79% | 82 | 29.92 | 1013.0 | ||||
| 09 | 06:53 | SE 6 | 10.00 | A Few Clouds | FEW009 | 78.1 | 73 | 85% | 81 | 29.9 | 1012.4 | ||||||
| 09 | 05:53 | E 5 | 10.00 | Overcast | SCT008 BKN013 OVC085 | 79 | 73.9 | 85% | 83 | 29.9 | 1012.3 | ||||||
| 09 | 04:53 | E 6 | 10.00 | Mostly Cloudy | BKN013 | 80.1 | 73 | 79% | 84 | 29.9 | 1012.3 | ||||||
| 09 | 03:53 | E 8 | 10.00 | Fair | CLR | 79 | 73.9 | 85% | 83 | 29.9 | 1012.4 | ||||||
| 09 | 02:53 | E 12 | 10.00 | Partly Cloudy | SCT012 | 80.1 | 75 | 85% | 85 | 29.92 | 1013.0 | ||||||
| 09 | 01:53 | N 7 | 10.00 | Fair | CLR | 80.1 | 73.9 | 84 | 80.1 | 82% | 85 | 29.93 | 1013.5 | ||||
| 09 | 00:53 | N 6 | 10.00 | Fair | CLR | 80.1 | 73.9 | 82% | 85 | 29.95 | 1014.1 | ||||||
| 08 | 23:53 | Vrbl 3 | 10.00 | Fair | CLR | 81 | 73.9 | 79% | 86 | 29.96 | 1014.5 | ||||||
| 08 | 22:53 | NW 6 | 10.00 | Fair | CLR | 81 | 73 | 77% | 86 | 29.96 | 1014.4 | ||||||
| 08 | 21:53 | N 9 | 10.00 | Fair | CLR | 82 | 73 | 74% | 87 | 29.94 | 1013.7 | ||||||
| 08 | 20:53 | NW 7 | 10.00 | Fair | CLR | 82.9 | 72 | 70% | 88 | 29.92 | 1013.1 | ||||||
| 08 | 19:53 | W 8 | 10.00 | Fair | CLR | 84.9 | 71.1 | 90 | 84.9 | 63% | 90 | 29.89 | 1012.2 | ||||
| 08 | 18:53 | NW 6 | 10.00 | Fair | CLR | 88 | 66 | 48% | 90 | 29.88 | 1011.7 | ||||||
| 08 | 17:53 | W 9 | 10.00 | Fair | CLR | 88 | 66 | 48% | 90 | 29.88 | 1011.6 | ||||||
| 08 | 16:53 | W 8 | 10.00 | Fair | CLR | 88 | 64.9 | 46% | 90 | 29.88 | 1011.6 | ||||||
| 08 | 15:53 | SW 9 | 10.00 | Fair | CLR | 88 | 69.1 | 54% | 92 | 29.9 | 1012.3 | ||||||
| 08 | 14:53 | W 5 | 10.00 | Mostly Cloudy | BKN035 | 87.1 | 70 | 57% | 92 | 29.92 | 1013.1 | ||||||
| 08 | 13:53 | S 9 | 10.00 | Mostly Cloudy | FEW047 BKN055 | 86 | 73 | 88 | 80.1 | 65% | 93 | 29.95 | 1014.3 | ||||
| 08 | 12:53 | SE 9 | 10.00 | Mostly Cloudy | SCT037 BKN048 | 86 | 73 | 65% | 93 | 29.97 | 1014.8 | ||||||
| 08 | 11:53 | SE 9 | 10.00 | Overcast | BKN027 OVC032 | 84 | 73.9 | 72% | 91 | 29.99 | 1015.4 | ||||||
| 08 | 10:53 | SE 8 | 10.00 | Mostly Cloudy | BKN029 BKN055 | 84 | 73.9 | 72% | 91 | 30 | 1015.7 | ||||||
| 08 | 09:53 | N 5 | 10.00 | Mostly Cloudy | BKN010 BKN021 BKN030 | 84.9 | 72 | 65% | 91 | 29.99 | 1015.6 | ||||||
| 08 | 08:53 | N 5 | 10.00 | Mostly Cloudy | BKN010 | 82 | 73.9 | 77% | 88 | 29.99 | 1015.5 | ||||||
| 08 | 07:53 | Vrbl 3 | 10.00 | Mostly Cloudy | BKN030 | 80.1 | 73 | 80.1 | 78.1 | 79% | 84 | 29.97 | 1014.8 | ||||
| 08 | 06:53 | W 3 | 10.00 | Partly Cloudy | SCT027 | 79 | 73 | 82% | 82 | 29.95 | 1014.2 | ||||||
| 08 | 05:53 | W 3 | 10.00 | Fair | CLR | 79 | 73 | 82% | 82 | 29.93 | 1013.5 | ||||||
| 08 | 04:53 | W 5 | 10.00 | Fair | CLR | 79 | 72 | 79% | 82 | 29.92 | 1013.1 | ||||||
| 08 | 03:53 | W 5 | 10.00 | Fair | CLR | 79 | 72 | 79% | 82 | 29.92 | 1013.0 | ||||||
| 08 | 02:53 | NW 3 | 10.00 | Fair | CLR | 79 | 71.1 | 77% | 82 | 29.93 | 1013.5 | ||||||
| 08 | 01:53 | W 8 | 10.00 | Fair | CLR | 80.1 | 71.1 | 82 | 79 | 74% | 84 | 29.95 | 1014.0 | ||||
| 08 | 00:53 | W 7 | 10.00 | Fair | CLR | 80.1 | 71.1 | 74% | 84 | 29.95 | 1014.1 | ||||||
| 07 | 23:53 | W 7 | 10.00 | Fair | CLR | 80.1 | 71.1 | 74% | 84 | 29.96 | 1014.5 | ||||||
| 07 | 22:53 | W 6 | 10.00 | Fair | CLR | 80.1 | 71.1 | 74% | 84 | 29.96 | 1014.5 | ||||||
| 07 | 21:53 | W 7 | 10.00 | Fair | CLR | 80.1 | 71.1 | 74% | 84 | 29.95 | 1014.2 | ||||||
| 07 | 20:53 | W 8 | 10.00 | Fair | CLR | 81 | 70 | 69% | 84 | 29.94 | 1013.9 | ||||||
| 07 | 19:53 | W 8 | 10.00 | Fair | CLR | 82 | 68 | 86 | 82 | 63% | 85 | 29.94 | 1013.8 | ||||
| 07 | 18:53 | W 9 | 10.00 | Fair | CLR | 84 | 66 | 55% | 86 | 29.94 | 1013.6 | ||||||
| 07 | 17:53 | W 8 | 10.00 | Fair | CLR | 84 | 68 | 59% | 87 | 29.94 | 1013.7 | ||||||
| 07 | 16:53 | W 9 | 10.00 | Fair | CLR | 84.9 | 64 | 50% | 86 | 29.94 | 1013.9 | ||||||
| 07 | 15:53 | W 7 G 18 | 10.00 | Fair | CLR | 84 | 64 | 51% | 85 | 29.95 | 1014.3 | ||||||
| 07 | 14:53 | W 13 | 10.00 | Fair | CLR | 84.9 | 64.9 | 51% | 87 | 29.97 | 1014.9 | ||||||
| 07 | 13:53 | SW 12 G 20 | 10.00 | Fair | CLR | 84 | 66 | 84 | 78.1 | 55% | 86 | 29.99 | 1015.5 | ||||
| 07 | 12:53 | SW 12 | 10.00 | Fair | CLR | 84 | 66.9 | 57% | 87 | 30 | 1015.8 | ||||||
| 07 | 11:53 | Calm | 10.00 | Fair | CLR | 82.9 | 69.1 | 63% | 87 | 30.01 | 1016.2 | ||||||
| 07 | 10:53 | S 15 | 10.00 | Fair | CLR | 82.9 | 70 | 65% | 87 | 30.01 | 1016.1 | ||||||
| 07 | 09:53 | S 9 | 10.00 | Fair | CLR | 82 | 69.1 | 65% | 85 | 30 | 1016.0 | ||||||
| 07 | 08:53 | S 9 | 10.00 | A Few Clouds | FEW010 | 80.1 | 71.1 | 74% | 84 | 29.99 | 1015.6 | ||||||
| 07 | 07:53 | S 6 | 10.00 | Fair | CLR | 78.1 | 70 | 78.1 | 75 | 76% | 80 | 29.98 | 1015.2 | ||||
| 07 | 06:53 | S 8 | 10.00 | Fair | CLR | 75.9 | 70 | 82% | 77 | 29.97 | 1014.9 | ||||||
| 07 | 05:53 | SE 6 | 10.00 | Fair | CLR | 77 | 72 | 85% | 78 | 29.96 | 1014.4 | ||||||
| 07 | 04:53 | E 7 | 10.00 | Fair | CLR | 78.1 | 73 | 85% | 81 | 29.96 | 1014.4 | ||||||
| 07 | 03:53 | E 7 | 10.00 | Fair | CLR | 78.1 | 73 | 85% | 81 | 29.94 | 1013.9 | ||||||
| 07 | 02:53 | E 7 | 10.00 | Fair | CLR | 78.1 | 73 | 85% | 81 | 29.96 | 1014.5 | ||||||
| 07 | 01:53 | E 8 | 10.00 | Partly Cloudy | SCT012 | 78.1 | 72 | 81 | 78.1 | 82% | 80 | 29.98 | 1015.1 | ||||
| 07 | 00:53 | N 6 | 10.00 | Fair | CLR | 78.1 | 72 | 82% | 80 | 29.99 | 1015.5 | ||||||
| 06 | 23:53 | N 6 | 10.00 | Fair | CLR | 78.1 | 72 | 82% | 80 | 30 | 1015.8 | ||||||
| 06 | 22:53 | N 3 | 10.00 | Fair | CLR | 79 | 72 | 79% | 82 | 29.99 | 1015.6 | ||||||
| 06 | 21:53 | NW 3 | 10.00 | Fair | CLR | 79 | 73 | 82% | 82 | 29.98 | 1015.2 | ||||||
| 06 | 20:53 | W 9 | 10.00 | Fair | CLR | 79 | 72 | 79% | 82 | 29.98 | 1015.1 | ||||||
| 06 | 19:53 | W 10 | 10.00 | Fair | CLR | 81 | 72 | 86 | 81 | 74% | 85 | 29.97 | 1014.9 | ||||
| 06 | 18:53 | SW 12 | 10.00 | Fair | CLR | 82.9 | 69.1 | 63% | 87 | 29.97 | 1014.7 | ||||||
| 06 | 17:53 | W 10 | 10.00 | Fair | CLR | 84.9 | 70 | 61% | 89 | 29.97 | 1014.9 | ||||||
| 06 | 16:53 | SW 9 | 10.00 | Fair | CLR | 84 | 71.1 | 65% | 89 | 29.97 | 1014.9 | ||||||
| 06 | 15:53 | W 12 | 10.00 | Fair | CLR | 84 | 73 | 70% | 90 | 29.98 | 1015.1 | ||||||
| 06 | 14:53 | SW 10 | 10.00 | Fair | CLR | 84.9 | 72 | 65% | 91 | 29.99 | 1015.6 | ||||||
| 06 | 13:53 | SW 9 | 10.00 | Fair | CLR | 84.9 | 71.1 | 87.1 | 75 | 63% | 90 | 30.01 | 1016.2 | ||||
| Date | Time (edt) | Wind (mph) | Vis. (mi.) | Weather | Sky Cond. | Air | Dwpt | Max. | Min. | Relative Humidity | Wind Chill (°F) | Heat Index (°F) | altimeter (in) | sea level (mb) | 1 hr | 3 hr | 6 hr |
| 6 hour | |||||||||||||||||
| Temperature (ºF) | Pressure | Precipitation (in) | |||||||||||||||